DW4989 Weather Reports


time (UTC)temp
F
wind
direction
speed
knots
gust
knots
rain 1hr
in
rain 24hr
in
rain mn
in
humidity
%
barometer
mb
20260504100107 41 0 0.0 1.7 0.00 0.00 0.00 93 1007.2
20260504090112 39 0 0.0 0.0 0.00 0.00 0.00 87 1007.6
20260504081555 42 356 0.9 1.7 0.00 0.00 0.00 86 1007.9
20260504044602 53 30 0.9 1.7 0.00 0.00 0.00 66 1009.9
20260504043058 56 0 0.0 1.7 0.00 0.00 0.00 62 1009.6
20260504041557 57 0 0.0 0.9 0.00 0.00 0.00 59 1009.9
20260504040114 58 0 0.0 2.6 0.00 0.00 0.00 58 1010.1
20260504034622 59 24 3.5 7.8 0.00 0.00 0.00 57 1010.8
20260504033058 56 339 4.3 9.6 0.00 0.00 0.00 65 1011.5
20260504031552 55 286 1.7 2.6 0.00 0.00 0.00 67 1011.2
20260504030119 54 0 0.0 3.5 0.00 0.00 0.00 62 1010.8
20260504024558 55 358 0.9 3.5 0.00 0.00 0.00 61 1010.7
20260504023053 56 167 0.9 2.6 0.00 0.00 0.00 65 1010.6
20260504021554 57 13 1.7 2.6 0.00 0.00 0.00 57 1010.5
20260504020052 60 0 0.0 0.9 0.00 0.00 0.00 53 1010.8
20260504014601 62 0 0.0 1.7 0.00 0.00 0.00 49 1010.8
20260504013054 66 0 0.0 1.7 0.00 0.00 0.00 42 1010.9
20260504011553 69 41 0.9 1.7 0.00 0.00 0.00 38 1010.8
20260504010058 72 0 0.0 0.9 0.00 0.00 0.00 32 1010.9
20260504004553 72 0 0.0 1.7 0.00 0.00 0.00 32 1011.0
20260504003055 73 290 0.9 1.7 0.00 0.00 0.00 33 1011.3
20260504001604 71 0 0.9 2.6 0.00 0.00 0.00 34 1011.6
20260504000056 70 281 2.6 7.0 0.00 0.00 0.00 34 1012.1
20260503234554 70 301 2.6 7.0 0.00 0.00 0.00 34 1012.5
20260503233053 71 41 0.9 5.2 0.00 0.00 0.00 33 1012.8
20260503231553 71 293 2.6 5.2 0.00 0.00 0.00 35 1012.9
20260503230050 70 319 3.5 7.8 0.00 0.00 0.00 35 1013.1
20260503224551 70 316 4.3 9.6 0.00 0.00 0.00 35 1013.1
20260503223052 72 264 7.8 13.0 0.00 0.00 0.00 32 1013.3
20260503221553 74 240 3.5 7.0 0.00 0.00 0.00 32 1013.3
20260503220056 72 336 3.5 8.7 0.00 0.00 0.00 34 1013.6
20260503214601 73 259 7.8 13.0 0.00 0.00 0.00 33 1013.8
20260503213052 73 280 5.2 10.4 0.00 0.00 0.00 33 1013.8
20260503211556 71 237 6.1 9.6 0.00 0.00 0.00 35 1014.1
20260503210055 71 348 5.2 10.4 0.00 0.00 0.00 37 1014.3
20260503204557 71 242 4.3 14.8 0.00 0.00 0.00 35 1014.6
20260503203053 71 318 5.2 9.6 0.00 0.00 0.00 37 1014.9
20260503201551 70 331 5.2 13.9 0.00 0.00 0.00 37 1015.2
20260503200053 70 288 6.1 15.6 0.00 0.00 0.00 38 1015.4
20260503194553 70 248 4.3 14.8 0.00 0.00 0.00 37 1015.5
20260503193108 69 351 7.8 15.6 0.00 0.00 0.00 35 1015.7
20260503191554 70 299 9.6 15.6 0.00 0.00 0.00 34 1015.9
20260503190105 70 328 7.0 13.0 0.00 0.00 0.00 34 1015.9
20260503184553 70 254 4.3 13.9 0.00 0.00 0.00 33 1016.1
20260503183105 70 310 4.3 10.4 0.00 0.00 0.00 37 1016.2
20260503181551 69 271 7.8 13.0 0.00 0.00 0.00 34 1016.2
20260503180058 69 294 2.6 10.4 0.00 0.00 0.00 36 1016.5
20260503174554 68 344 7.8 11.3 0.00 0.00 0.00 35 1016.5
20260503173111 69 289 3.5 13.9 0.00 0.00 0.00 37 1016.7
20260503171553 67 30 3.5 12.2 0.00 0.00 0.00 37 1017.1
20260503150109 61 349 4.3 8.7 0.00 0.00 0.00 51 1018.0
20260503140119 55 243 1.7 5.2 0.00 0.00 0.00 62 1018.0